To NAV CANADA Home Page Login to a new session Search on AWWS site Feedback and Comments Disclaimer Vers la page française équivalente Tips FAQ What's new on the site To the Forecasts and Observations / NOTAM section To "File a Flight Plan" website Publications and other links Update of the User's profile FIC Telephone Numbers My Weather Data Folder Route Weather Data Regional Weather Data Local Weather Data To the Forecasts and Observations / NOTAM section
Request Generated 10/18/2017 at 03:47:00 UTC . Weather information available at that time is displayed.

METAR/TAF

SARNIA (CHRIS HADFIELD)/ON    (show WxCam)

METAR CYZR 180300Z AUTO 22006KT 9SM CLR 14/07 A3016 RMK SLP217=
METAR CYZR 180200Z AUTO 23006KT 9SM CLR 15/07 A3015 RMK SLP213=
METAR CYZR 180100Z AUTO 21005KT 9SM FEW240 15/07 A3013 RMK SLP207=

*** REMARK        : Forecast period has ended; this was the last TAF issued
*** REMARQUE : La période de prévision est échue; ceci était le dernier TAF qui a été émis
TAF CYZR 171938Z 1720/1802 22015G25KT P6SM FEW240
BECMG 1722/1724 24012KT
RMK FCST BASED ON AUTO OBS. NXT FCST WILL BE ISSUED AT 180745Z=
Your time UTC time
Weather data provided by Environment Canada and NAV CANADA